Miscellaneous Local Product
Issued by NWS North Platte, NE

Home | Current Version | Previous Version | Text Only | Print | Product List | Glossary On
Versions: 1 2 3 4 5 6 7 8 9 10 11 12 13 14 15 16 17 18 19 20 21 22 23 24 25 26 27 28 29 30 31 32 33 34 35 36 37 38 39 40 41 42 43 44 45 46 47 48 49 50
000
AXUS43 KLBF 041410
MISLBF


WESTERN AND NORTH CENTRAL NEBRASKA HOURLY WEATHER ROUNDUP
NATIONAL WEATHER SERVICE NORTH PLATTE NE
900 AM CDT SAT JUL 04 2015

***STATIONS NOT REPORTING VARIABLES SUCH AS SKY/WEATHER OR
PRESSURE ARE PROVIDED BY THE NEBRASKA DEPARTMENT OF
ROADS...RAWS...AND APRS NETWORKS...AND ARE NOT UNDER
NATIONAL WEATHER SERVICE QUALITY CONTROL***

...OBSERVATIONS IN AND NEAR THE EASTERN PANHANDLE OF NEBRASKA...

CITY           SKY/WX    TMP DP  RH WIND       PRES   REMARKS
PINE RIDGE     SUNNY     72  61  68 S18G24    29.90S
CHADRON        SUNNY     73  61  65 S9        29.90F
ALLIANCE       SUNNY     69  62  78 S12       29.95S
SIDNEY         MOSUNNY   68  61  78 S9        29.98R
WHITECLAY        N/A     72  61  68 S14         N/A
CRESCENT LAKE    N/A     71  63  76 S7          N/A
BIG SPRINGS      N/A     72  62  72 S15         N/A
$$

...OBSERVATIONS IN NORTH CENTRAL NEBRASKA...

CITY           SKY/WX    TMP DP  RH WIND       PRES   REMARKS
VALENTINE      SUNNY     72  60  66 S12       29.93F
THEDFORD       MOSUNNY   70  62  75 S12       29.97F
AINSWORTH      MOSUNNY   69  62  78 S8        29.96S
O`NEILL        MOSUNNY   71  67  84 S8        29.97S
ORD            PTSUNNY   70  62  76 S14       29.97S
BROKEN BOW     PTSUNNY   67  63  87 SE5       29.98F FOG
VALENTINE NWR    N/A     65  62  91 S8          N/A
SPRINGVIEW       N/A     71  64  80 CALM        N/A
HALSEY           N/A     65  61  88 S6          N/A
BREWSTER         N/A     73  66  78 S15         N/A
ROSE             N/A     78  78  99 S9          N/A
NEWPORT          N/A     71  65  82 S9          N/A
SARGENT          N/A     68  64  85 CALM        N/A
CHAMBERS         N/A     72  64  76 S7          N/A
EWING            N/A     69  67  92 S6          N/A
$$

...OBSERVATIONS IN SOUTHWEST NEBRASKA AND FAR NORTHEAST COLORADO...

CITY           SKY/WX    TMP DP  RH WIND       PRES   REMARKS
WRAY           FAIR      70  60  72 S13       29.99R
HOLYOKE        FAIR      68  61  77 S10       29.97S
IMPERIAL       MOSUNNY   71  60  68 S15       29.97S
OGALLALA       SUNNY     71  62  71 S8        29.96S
NORTH PLATTE   SUNNY     70  61  73 E7        29.97S
MCCOOK         SUNNY     71  61  70 S9        29.97F
LEXINGTON      MOSUNNY   69  64  85 SE8       29.98S
PAXTON           N/A     70  63  79 S7          N/A
GOTHENBURG       N/A     69  60  72 SE6         N/A
CALLAWAY         N/A     68  66  94 S12         N/A
$$

...NORTH PLATTE AREA...

CITY           SKY/WX    TMP DP  RH WIND       PRES   REMARKS
AIRPORT        SUNNY     70  61  73 E7        29.97S
DOWNTOWN         N/A     72  63  72 S3          N/A
HILLCREST        N/A     69  63  82 SE6         N/A
$$

...SOME WEATHER OBSERVATIONS FROM AROUND THE REGION...

CITY           SKY/WX    TMP DP  RH WIND       PRES   REMARKS
DENVER         MOSUNNY   69  54  58 W9        30.03R
LARAMIE        MOSUNNY   67  44  43 CALM      30.16R
CHEYENNE       SUNNY     69  58  67 W5        30.06R
SCOTTSBLUFF    MOSUNNY   70  61  73 SE9       29.95R
RAPID CITY     SUNNY     70  62  76 S8        29.86F
PIERRE         SUNNY     70  64  81 SE7       29.85F
WINNER         FAIR      75  60  59 S15       29.89F
SIOUX FALLS    SUNNY     69  64  84 S5        29.97S
OMAHA          SUNNY     67  59  75 SE5       30.01S
GRAND ISLAND   MOSUNNY   72  62  71 SW12      30.00S
KANSAS CITY    PTSUNNY   71  62  73 SE5       30.02R
WICHITA        MOSUNNY   74  65  73 SE7       30.01R
HAYS           SUNNY     72  61  68 S12       30.00S
LIBERAL        SUNNY     75  64  69 S9        30.04S
GOODLAND       SUNNY     70  61  73 S18       30.00R
$$



USA.gov is the U.S. government's official web portal to all federal, state and local government web resources and services.